Date String (YYYY-MM-DD hh:mm:ss) UTC,Instrument flags,absolute air pressure of the measurement (hPa),sample flow rate (lpm),inlet stack bypass flow (lpm),air temperature of the measurement (°C),ambient temperature measured by the external sensor (°C),aerosol sample conditioner tube jacket temperature (°C),OPC LED temperature (°C),internal box temperature (°C),relative humidity of the measurement (%),span deviation,mass concentration of particles derived from Lorenz-Mie calculation of OPC scattering (μg/m³),mass concentration of particles derived from Lorenz-Mie calculation of OPC scattering (μg/m³),mass concentration of particles derived from Lorenz-Mie calculation of OPC scattering (μg/m³)
DateTimeUTC,F1_M11,P_M11,Q1_M11,Q2_M11,T1_M11,T2_M11,T3_M11,T4_M11,T5_M11,U1_M11,ZSPAN_M11,X0_M11,X2_M11,X1_M11
2024-04-08 14:00:00,SystemResetWarning,0825.3,5.01,000.00,018.5,017.8,000.0,027.1,020.2,014.7,0000.0,0008.19,0002.85,0001.71
2024-04-08 14:01:00,SystemResetWarning,0825.3,5.01,000.00,018.5,017.8,000.0,027.1,020.2,014.8,0000.0,0008.29,0002.90,0001.74
2024-04-08 14:02:00,SystemResetWarning,0825.3,4.99,000.00,018.5,017.8,000.0,027.1,020.2,014.2,0000.0,0008.44,0002.96,0001.78
2024-04-08 14:03:00,SystemResetWarning,0825.4,5.00,000.00,018.4,017.7,000.0,027.1,020.2,011.8,0000.0,0009.10,0003.00,0001.82
2024-04-08 14:04:00,SystemResetWarning,0825.4,4.99,000.00,018.4,017.7,000.0,027.1,020.2,013.5,0000.0,0009.08,0003.03,0001.86
2024-04-08 14:05:00,SystemResetWarning,0825.4,4.99,000.00,018.4,017.7,000.0,027.1,020.2,011.9,0000.0,0008.52,0003.06,0001.89
2024-04-08 14:06:00,SystemResetWarning,0825.4,5.01,000.00,018.4,017.7,000.0,027.0,020.1,011.8,0000.0,0008.60,0003.05,0001.87
2024-04-08 14:07:00,SystemResetWarning,0825.4,5.01,000.00,018.4,017.7,000.0,027.0,020.1,011.1,0000.0,0008.59,0003.06,0001.85
2024-04-08 14:08:00,SystemResetWarning,0825.4,5.00,000.00,018.4,017.7,000.0,027.0,020.1,011.4,0000.0,0008.96,0003.02,0001.84
2024-04-08 14:09:00,SystemResetWarning,0825.5,4.99,000.00,018.4,017.7,000.0,027.0,020.1,011.6,0000.0,0009.03,0002.98,0001.84
2024-04-08 14:10:00,SystemResetWarning,0825.4,4.99,000.00,018.4,017.7,000.0,027.0,020.1,011.2,0000.0,0008.42,0002.94,0001.84
2024-04-08 14:11:00,SystemResetWarning,0825.4,5.00,000.00,018.4,017.7,000.0,027.0,020.1,010.5,0000.0,0008.03,0002.88,0001.84
2024-04-08 14:12:00,SystemResetWarning,0825.4,5.01,000.00,018.4,017.7,000.0,027.0,020.1,010.3,0000.0,0007.94,0002.88,0001.85
2024-04-08 14:13:00,SystemResetWarning,0825.4,5.00,000.00,018.4,017.7,000.0,027.0,020.0,010.3,0000.0,0007.78,0002.86,0001.86
2024-04-08 14:14:00,SystemResetWarning,0825.4,4.99,000.00,018.3,017.7,000.0,027.0,020.0,010.3,0000.0,0006.92,0002.83,0001.88
2024-04-08 14:15:00,SystemResetWarning,0825.5,4.99,000.00,018.3,017.7,000.0,026.9,020.0,011.1,0000.0,0006.78,0002.84,0001.90
2024-04-08 14:16:00,SystemResetWarning,0825.6,5.00,000.00,018.3,017.6,000.0,026.9,020.0,013.7,0000.0,0007.56,0002.83,0001.91
2024-04-08 14:17:00,SystemResetWarning,0825.6,5.01,000.00,018.3,017.6,000.0,026.9,020.0,013.6,0000.0,0009.27,0003.00,0001.94
2024-04-08 14:18:00,SystemResetWarning,0825.4,5.00,000.00,018.3,017.6,000.0,026.9,020.0,011.3,0000.0,0009.56,0003.03,0001.95
2024-04-08 14:19:00,SystemResetWarning,0825.3,5.00,000.00,018.3,017.6,000.0,026.9,020.0,010.4,0000.0,0009.37,0003.06,0001.97
2024-04-08 14:20:00,SystemResetWarning,0825.4,4.99,000.00,018.3,017.6,000.0,026.9,020.0,010.3,0000.0,0009.12,0003.13,0002.00
2024-04-08 14:21:00,SystemResetWarning,0825.5,4.99,000.00,018.3,017.6,000.0,026.9,020.0,011.4,0000.0,0009.07,0003.15,0002.01
2024-04-08 14:22:00,SystemResetWarning,0825.6,4.99,000.00,018.3,017.6,000.0,026.9,020.0,014.0,0000.0,0009.15,0003.17,0002.04
2024-04-08 14:23:00,SystemResetWarning,0825.7,5.01,000.00,018.3,017.6,000.0,026.9,020.0,014.5,0000.0,0009.18,0003.17,0002.03
2024-04-08 14:24:00,SystemResetWarning,0825.7,5.00,000.00,018.3,017.6,000.0,026.9,020.0,014.7,0000.0,0009.30,0003.16,0002.01
2024-04-08 14:25:00,SystemResetWarning,0825.6,5.00,000.00,018.3,017.6,000.0,026.9,020.0,014.7,0000.0,0009.43,0003.15,0001.98
2024-04-08 14:26:00,SystemResetWarning,0825.5,5.00,000.00,018.3,017.6,000.0,026.9,020.0,014.5,0000.0,0009.33,0003.12,0001.95
2024-04-08 14:27:00,SystemResetWarning,0825.5,5.00,000.00,018.3,017.6,000.0,026.9,020.0,014.7,0000.0,0009.21,0003.11,0001.93
2024-04-08 14:28:00,SystemResetWarning,0825.4,4.99,000.00,018.3,017.7,000.0,026.9,020.0,014.4,0000.0,0007.44,0003.03,0001.90
2024-04-08 14:29:00,SystemResetWarning,0825.4,5.00,000.00,018.3,017.7,000.0,026.9,020.0,014.3,0000.0,0006.28,0002.91,0001.87
2024-04-08 14:30:00,SystemResetWarning,0825.4,5.00,000.00,018.3,017.7,000.0,026.9,020.0,014.3,0000.0,0006.12,0002.87,0001.85
2024-04-08 14:31:00,SystemResetWarning,0825.5,5.00,000.00,018.3,017.7,000.0,026.9,020.0,014.5,0000.0,0005.97,0002.80,0001.83
2024-04-08 14:32:00,SystemResetWarning,0825.6,5.00,000.00,018.3,017.7,000.0,026.9,020.0,014.5,0000.0,0005.87,0002.70,0001.80
2024-04-08 14:33:00,SystemResetWarning,0825.6,5.00,000.00,018.3,017.7,000.0,026.8,020.0,014.6,0000.0,0005.57,0002.64,0001.78
2024-04-08 14:34:00,SystemResetWarning,0825.7,5.00,000.00,018.3,017.7,000.0,026.8,020.0,014.8,0000.0,0005.79,0002.64,0001.76
2024-04-08 14:35:00,SystemResetWarning,0825.8,5.00,000.00,018.3,017.7,000.0,026.8,020.0,014.8,0000.0,0005.96,0002.64,0001.76
2024-04-08 14:36:00,SystemResetWarning,0825.8,5.00,000.00,018.3,017.7,000.0,026.8,020.0,014.9,0000.0,0005.56,0002.59,0001.75
2024-04-08 14:37:00,SystemResetWarning,0825.8,5.00,000.00,018.3,017.7,000.0,026.8,020.0,014.8,0000.0,0005.49,0002.58,0001.75
2024-04-08 14:38:00,SystemResetWarning,0825.8,5.00,000.00,018.3,017.7,000.0,026.8,020.0,014.9,0000.0,0005.89,0002.61,0001.77
2024-04-08 14:39:00,SystemResetWarning,0825.9,4.99,000.00,018.3,017.7,000.0,026.8,020.0,015.1,0000.0,0006.28,0002.66,0001.80
2024-04-08 14:40:00,SystemResetWarning,0825.8,4.99,000.00,018.3,017.7,000.0,026.8,020.0,015.2,0000.0,0007.13,0002.71,0001.82
2024-04-08 14:41:00,SystemResetWarning,0825.8,4.99,000.00,018.3,017.7,000.0,026.8,020.0,014.4,0000.0,0008.04,0002.73,0001.83
2024-04-08 14:42:00,SystemResetWarning,0825.7,5.01,000.00,018.3,017.8,000.0,026.8,020.0,014.2,0000.0,0009.14,0002.84,0001.84
2024-04-08 14:43:00,SystemResetWarning,0825.8,5.00,000.00,018.3,017.8,000.0,026.8,020.0,014.2,0000.0,0010.39,0002.88,0001.85
2024-04-08 14:44:00,SystemResetWarning,0825.8,5.00,000.00,018.3,017.8,000.0,026.8,020.0,014.5,0000.0,0010.55,0002.88,0001.86
2024-04-08 14:45:00,SystemResetWarning,0825.9,5.00,000.00,018.3,017.8,000.0,026.8,020.0,014.7,0000.0,0010.38,0002.82,0001.86
2024-04-08 14:46:00,SystemResetWarning,0825.9,5.00,000.00,018.3,017.8,000.0,026.8,020.0,014.5,0000.0,0010.14,0002.81,0001.87
2024-04-08 14:47:00,SystemResetWarning,0825.9,4.99,000.00,018.3,017.8,000.0,026.8,020.0,014.6,0000.0,0010.97,0002.88,0001.88
2024-04-08 14:48:00,SystemResetWarning,0825.9,4.99,000.00,018.3,017.8,000.0,026.8,020.0,014.8,0000.0,0011.06,0002.93,0001.89
2024-04-08 14:49:00,SystemResetWarning,0825.9,4.99,000.00,018.3,017.8,000.0,026.8,020.1,014.7,0000.0,0010.92,0002.96,0001.89
2024-04-08 14:50:00,SystemResetWarning,0825.9,5.00,000.00,018.3,017.8,000.0,026.8,020.1,014.7,0000.0,0010.98,0002.86,0001.87
2024-04-08 14:51:00,SystemResetWarning,0825.9,5.01,000.00,018.3,017.8,000.0,026.8,020.1,014.7,0000.0,0010.69,0002.81,0001.86
2024-04-08 14:52:00,SystemResetWarning,0825.9,5.01,000.00,018.3,017.8,000.0,026.8,020.1,014.7,0000.0,0009.93,0002.80,0001.87
2024-04-08 14:53:00,SystemResetWarning,0825.9,5.00,000.00,018.3,017.8,000.0,026.8,020.1,014.8,0000.0,0009.42,0002.75,0001.87
2024-04-08 14:54:00,SystemResetWarning,0825.9,5.00,000.00,018.3,017.8,000.0,026.8,020.1,014.8,0000.0,0008.39,0002.72,0001.88
2024-04-08 14:55:00,SystemResetWarning,0825.8,4.99,000.00,018.3,017.8,000.0,026.8,020.1,014.7,0000.0,0008.11,0002.72,0001.87
2024-04-08 14:56:00,SystemResetWarning,0825.7,4.99,000.00,018.4,017.8,000.0,026.8,020.1,014.7,0000.0,0008.08,0002.73,0001.86
2024-04-08 14:57:00,SystemResetWarning,0825.7,5.00,000.00,018.4,017.8,000.0,026.8,020.1,014.9,0000.0,0008.79,0002.74,0001.87
2024-04-08 14:58:00,SystemResetWarning,0825.8,5.00,000.00,018.4,017.8,000.0,026.8,020.1,014.8,0000.0,0008.34,0002.73,0001.86
2024-04-08 14:59:00,SystemResetWarning,0825.9,5.01,000.00,018.4,017.8,000.0,026.8,020.1,015.2,0000.0,0008.34,0002.65,0001.86
